Agios Georgios I — SX9857 — position and weather

sailwx.info

Track history (hours):
 
Tides and Currents Weather Stations Pressure Air Temp Water Temp Dewpoint Dewpoint Depression Visibility Wind Speed Wind Dir Waves Ship Positions

Agios Georgios I

Last reported at 2014-Oct-17 15:24 UTC. Time now 2014-Oct-22 01:44 UTC.
Position N 37°30' E 024°58'.

Length 59 m; draft 5 m.

Type: Ship (hazmat cat B). MMSI: 239912000.

Date/timePositionNaut miles runAvg speedWind from/ knotsBaromVisibWave heightAir tempDewpointWater temp
2014-Oct-17 15:24N 37°30' E 024°58'4 3.8
2014-Oct-17 14:22N 37°26' E 024°56'0 0.0
2014-Oct-17 13:26N 37°26' E 024°56'0 0.0
2014-Oct-17 12:30N 37°26' E 024°56'0 0.0
2014-Oct-17 11:20N 37°26' E 024°56'0 0.0
2014-Oct-17 10:19N 37°26' E 024°56'0 0.0
2014-Oct-17 09:30N 37°26' E 024°56'0 0.0
2014-Oct-17 08:26N 37°26' E 024°56'0 0.0
2014-Oct-17 07:08N 37°26' E 024°56'0 0.0
2014-Oct-17 06:31N 37°26' E 024°56'0 0.0
2014-Oct-17 05:23N 37°26' E 024°56'1 1.6
2014-Oct-17 04:31N 37°26' E 024°58'5 5.7
2014-Oct-17 03:32N 37°22' E 025°03'9 8.9
2014-Oct-17 02:33N 37°16' E 025°11'9 8.7
2014-Oct-17 01:33N 37°09' E 025°18'4 4.3
2014-Oct-17 00:33N 37°06' E 025°22'0 0.0
2014-Oct-16 23:33N 37°06' E 025°22'0 0.0
2014-Oct-16 22:33N 37°06' E 025°22'0 0.3
2014-Oct-16 21:33N 37°06' E 025°22'0 0.3
2014-Oct-16 20:33N 37°06' E 025°22'0 0.0
2014-Oct-16 19:33N 37°06' E 025°22'7 7.1
2014-Oct-16 18:33N 37°10' E 025°15'7 5.4
2014-Oct-16 17:19N 37°05' E 025°09'0 0.0
2014-Oct-16 16:29N 37°05' E 025°09'0 0.0
2014-Oct-16 15:30N 37°05' E 025°09'2 1.2
2014-Oct-16 14:15N 37°06' E 025°08'6 9.0
2014-Oct-16 13:33N 37°12' E 025°11'9 9.0
2014-Oct-16 12:33N 37°20' E 025°16'8 8.3
2014-Oct-16 11:33N 37°28' E 025°19'1 1.0
2014-Oct-16 10:33N 37°27' E 025°19'0 0.4
2014-Oct-16 09:33N 37°27' E 025°19'1 0.6
2014-Oct-16 08:33N 37°28' E 025°19'0 0.0
2014-Oct-16 07:33N 37°28' E 025°19'0 0.0
2014-Oct-16 06:32N 37°28' E 025°19'0 0.0
2014-Oct-16 05:33N 37°28' E 025°19'2 1.9
2014-Oct-16 04:33N 37°28' E 025°17'5 5.1
2014-Oct-16 03:33N 37°30' E 025°12'3 2.7
2014-Oct-16 02:33N 37°32' E 025°09'0 0.0
2014-Oct-16 01:33N 37°32' E 025°09'0 0.0
2014-Oct-16 00:33N 37°32' E 025°09'2 1.8
2014-Oct-15 23:33N 37°32' E 025°07'9 9.2
2014-Oct-15 22:33N 37°32' E 024°55'9 9.2
2014-Oct-15 21:33N 37°31' E 024°44'9 9.1
2014-Oct-15 20:33N 37°31' E 024°32'12 9.3
2014-Oct-15 19:16N 37°31' E 024°17'7 9.4
2014-Oct-15 18:33N 37°32' E 024°09'10 9.9
2014-Oct-15 17:31N 37°36' E 023°57'9 9.3
2014-Oct-15 16:31N 37°39' E 023°46'8 8.3
2014-Oct-15 15:33N 37°45' E 023°40'8 8.3
2014-Oct-15 14:33N 37°50' E 023°31'9 9.2
2014-Oct-15 13:33N 37°52' E 023°20'10 9.2
2014-Oct-15 12:30N 37°54' E 023°08'2 2.3
2014-Oct-15 11:28N 37°55' E 023°05'0 0.0
2014-Oct-15 10:32N 37°55' E 023°05'0 0.0
2014-Oct-15 09:33N 37°55' E 023°05'0 0.0
2014-Oct-15 08:27N 37°55' E 023°05'0 0.1
2014-Oct-15 07:29N 37°55' E 023°05'0 0.5
2014-Oct-15 06:30N 37°55' E 023°06'0 0.0
2014-Oct-15 04:30N 37°55' E 023°06'0 0.0
2014-Oct-15 03:32N 37°55' E 023°06'6 5.9
2014-Oct-15 02:30N 37°53' E 023°13'8 8.8
2014-Oct-15 01:33N 37°51' E 023°24'9 8.7
2014-Oct-15 00:33N 37°50' E 023°35'7 7.4
2014-Oct-14 23:33N 37°46' E 023°42'8 8.4
2014-Oct-14 22:33N 37°39' E 023°49'29 8.4
2014-Oct-14 19:10N 37°30' E 024°23'6 8.6
2014-Oct-14 18:30N 37°31' E 024°30'8 9.0
2014-Oct-14 17:33N 37°31' E 024°41'14 7.0
2014-Oct-14 15:33N 37°27' E 024°58'1 1.2
2014-Oct-14 14:31N 37°26' E 024°56'1 0.5
2014-Oct-14 13:07N 37°26' E 024°57'1 1.8
2014-Oct-14 12:33N 37°25' E 024°58'4 4.3
2014-Oct-14 11:30N 37°21' E 024°60'9 9.1
2014-Oct-14 10:28N 37°12' E 025°04'8 7.6
2014-Oct-14 09:25N 37°05' E 025°09'0 0.1
2014-Oct-14 02:30N 37°06' E 025°08'0 0.0
2014-Oct-14 01:18N 37°06' E 025°08'0 0.0
2014-Oct-14 00:06N 37°05' E 025°08'0 0.0
2014-Oct-13 22:32N 37°06' E 025°08'0 0.3
2014-Oct-13 21:24N 37°05' E 025°08'6 7.3
2014-Oct-13 20:33N 37°10' E 025°13'8 8.0
2014-Oct-13 19:33N 37°06' E 025°22'0 0.0
2014-Oct-13 18:33N 37°06' E 025°22'0 0.0
2014-Oct-13 17:33N 37°06' E 025°22'0 0.0
2014-Oct-13 16:33N 37°06' E 025°22'1 0.6
2014-Oct-13 15:33N 37°06' E 025°22'0 0.3
2014-Oct-13 14:33N 37°06' E 025°22'2 1.8
2014-Oct-13 13:33N 37°08' E 025°21'1010.0
2014-Oct-13 12:33N 37°18' E 025°19'9 9.4
2014-Oct-13 11:33N 37°27' E 025°18'2 1.6
2014-Oct-13 10:33N 37°28' E 025°20'0 0.0
2014-Oct-13 09:33N 37°28' E 025°20'0 0.0
2014-Oct-13 08:33N 37°28' E 025°20'0 0.0
2014-Oct-13 07:33N 37°28' E 025°20'0 0.0
2014-Oct-13 06:33N 37°28' E 025°20'1 0.5
2014-Oct-13 05:33N 37°27' E 025°19'1 0.6
2014-Oct-13 04:33N 37°28' E 025°18'6 6.4
2014-Oct-13 03:33N 37°31' E 025°11'2 2.2
2014-Oct-13 02:33N 37°32' E 025°09'0 0.0
2014-Oct-13 01:33N 37°32' E 025°09'0 0.0
2014-Oct-13 00:33N 37°32' E 025°09'0 0.0
2014-Oct-12 23:33N 37°32' E 025°09'0 0.0
2014-Oct-12 22:33N 37°32' E 025°09'0 0.0
2014-Oct-12 21:33N 37°32' E 025°09'0 0.0
2014-Oct-12 20:33N 37°32' E 025°09'0 0.0
2014-Oct-12 19:33N 37°32' E 025°09'0 0.0
2014-Oct-12 18:33N 37°32' E 025°09'0 0.0
2014-Oct-12 17:33N 37°32' E 025°09'0 0.0
2014-Oct-12 16:33N 37°32' E 025°09'0 0.0
2014-Oct-12 15:33N 37°32' E 025°09'1 1.1
2014-Oct-12 14:33N 37°31' E 025°08'9 8.6
2014-Oct-12 13:33N 37°27' E 024°59'2 2.2
2014-Oct-12 12:27N 37°26' E 024°56'0 0.0
2014-Oct-12 11:27N 37°26' E 024°56'0 0.0
2014-Oct-12 10:31N 37°26' E 024°56'0 0.0
2014-Oct-12 09:32N 37°26' E 024°56'0 0.0
2014-Oct-12 08:30N 37°26' E 024°56'1 0.7
2014-Oct-12 06:33N 37°27' E 024°57'7 6.8
2014-Oct-12 05:32N 37°32' E 024°51'9 8.9
2014-Oct-12 04:33N 37°31' E 024°40'9 8.5
2014-Oct-12 03:33N 37°30' E 024°30'9 8.7
2014-Oct-12 02:30N 37°31' E 024°18'8 9.0
2014-Oct-12 01:33N 37°33' E 024°08'20 8.8
2014-Oct-11 23:20N 37°39' E 023°44'7 8.8
2014-Oct-11 22:33N 37°45' E 023°39'8 8.1
2014-Oct-11 21:33N 37°50' E 023°31'9 9.1
2014-Oct-11 20:33N 37°52' E 023°20'9 9.1
2014-Oct-11 19:33N 37°54' E 023°09'3 2.2
2014-Oct-11 18:14N 37°55' E 023°05'0 0.0
2014-Oct-11 17:32N 37°55' E 023°05'0 0.0
2014-Oct-11 13:33N 37°55' E 023°05'0 0.0
2014-Oct-11 12:27N 37°55' E 023°05'0 0.0
2014-Oct-11 11:33N 37°55' E 023°05'0 0.0
2014-Oct-11 10:33N 37°55' E 023°05'0 0.0
2014-Oct-11 09:33N 37°55' E 023°05'0 0.0
2014-Oct-11 07:11N 37°55' E 023°05'0 0.0
2014-Oct-11 06:32N 37°55' E 023°05'1 0.5
2014-Oct-11 05:26N 37°55' E 023°06'0 0.2
2014-Oct-11 04:22N 37°55' E 023°06'0 0.0
2014-Oct-11 03:19N 37°55' E 023°06'0 0.0
2014-Oct-11 02:32N 37°55' E 023°06'0 0.0
2014-Oct-11 01:30N 37°55' E 023°06'0 0.0
2014-Oct-11 00:20N 37°55' E 023°06'0 0.1
2014-Oct-10 23:32N 37°55' E 023°06'0 0.0
2014-Oct-10 22:33N 37°55' E 023°06'0 0.0
2014-Oct-10 21:33N 37°55' E 023°06'0 0.0
2014-Oct-10 20:32N 37°55' E 023°06'0 0.0
2014-Oct-10 19:26N 37°55' E 023°06'2 1.6
2014-Oct-10 18:29N 37°54' E 023°08'8 9.0
2014-Oct-10 17:33N 37°52' E 023°18'9 8.7
2014-Oct-10 16:33N 37°50' E 023°29'8 7.8
2014-Oct-10 15:33N 37°57' E 023°35'1 0.7
2014-Oct-10 14:33N 37°57' E 023°35'0 0.0
2014-Oct-10 13:33N 37°57' E 023°35'0 0.0
2014-Oct-10 12:33N 37°57' E 023°35'0 0.2
2014-Oct-10 11:33N 37°57' E 023°35'0 0.0
2014-Oct-10 10:33N 37°57' E 023°35'0 0.0
2014-Oct-10 09:33N 37°57' E 023°35'0 0.0
2014-Oct-10 08:33N 37°57' E 023°35'0 0.0
2014-Oct-10 07:33N 37°57' E 023°35'0 0.0
2014-Oct-10 06:33N 37°57' E 023°35'0 0.0
2014-Oct-10 05:33N 37°57' E 023°35'0 0.0
2014-Oct-10 04:33N 37°57' E 023°35'0 0.0
2014-Oct-10 03:33N 37°57' E 023°35'0 0.0
2014-Oct-10 02:33N 37°57' E 023°35'0 0.0
2014-Oct-10 01:33N 37°57' E 023°35'0 0.0
2014-Oct-10 00:33N 37°57' E 023°35'0 0.0
2014-Oct-09 23:33N 37°57' E 023°35'0 0.0
2014-Oct-09 22:33N 37°57' E 023°35'0 0.0
2014-Oct-09 21:33N 37°57' E 023°35'0 0.0
2014-Oct-09 20:33N 37°57' E 023°35'0 0.0
2014-Oct-09 19:33N 37°57' E 023°35'0 0.0
2014-Oct-09 18:33N 37°57' E 023°35'0 0.0
2014-Oct-09 17:33N 37°57' E 023°35'0 0.0
2014-Oct-09 16:33N 37°57' E 023°35'0 0.0
2014-Oct-09 15:33N 37°57' E 023°35'0 0.0
2014-Oct-09 14:33N 37°57' E 023°35'0 0.0
2014-Oct-09 13:33N 37°57' E 023°35'0 0.0
2014-Oct-09 12:33N 37°57' E 023°35'0 0.0
2014-Oct-09 11:33N 37°57' E 023°35'0 0.0
2014-Oct-09 10:33N 37°57' E 023°35'0 0.0
2014-Oct-09 09:33N 37°57' E 023°35'0 0.0
2014-Oct-09 08:33N 37°57' E 023°35'0 0.0
2014-Oct-09 07:33N 37°57' E 023°35'0 0.0
2014-Oct-09 06:33N 37°57' E 023°35'0 0.0
2014-Oct-09 05:33N 37°57' E 023°35'0 0.0
2014-Oct-09 04:33N 37°57' E 023°35'0 0.0
2014-Oct-09 03:33N 37°57' E 023°35'0 0.0
2014-Oct-09 02:33N 37°57' E 023°35'0 0.0
2014-Oct-09 01:33N 37°57' E 023°35'0 0.0
2014-Oct-09 00:33N 37°57' E 023°35'0 0.0
2014-Oct-08 23:33N 37°57' E 023°35'0 0.0
2014-Oct-08 22:33N 37°57' E 023°35'0 0.0
2014-Oct-08 21:33N 37°57' E 023°35'0 0.0
2014-Oct-08 20:33N 37°57' E 023°35'0 0.0
2014-Oct-08 19:33N 37°57' E 023°35'0 0.0
2014-Oct-08 18:33N 37°57' E 023°35'0 0.0
2014-Oct-08 17:33N 37°57' E 023°35'0 0.1
2014-Oct-08 16:33N 37°57' E 023°35'0 0.0
2014-Oct-08 15:33N 37°57' E 023°35'0 0.0
2014-Oct-08 14:33N 37°57' E 023°35'0 0.0
2014-Oct-08 13:33N 37°57' E 023°35'0 0.1
2014-Oct-08 12:33N 37°57' E 023°35'0 0.0
2014-Oct-08 11:33N 37°57' E 023°35'0 0.0
2014-Oct-08 10:33N 37°57' E 023°35'0 0.0
2014-Oct-08 09:33N 37°57' E 023°35'0 0.0
2014-Oct-08 08:33N 37°57' E 023°35'0 0.0
2014-Oct-08 07:33N 37°57' E 023°35'0 0.0
2014-Oct-08 06:33N 37°57' E 023°35'0 0.0
2014-Oct-08 05:33N 37°57' E 023°35'0 0.0
2014-Oct-08 04:33N 37°57' E 023°35'0 0.0
2014-Oct-08 03:33N 37°57' E 023°35'0 0.0
2014-Oct-08 02:33N 37°57' E 023°35'0 0.0
2014-Oct-08 01:33N 37°57' E 023°35'0 0.0
2014-Oct-08 00:34N 37°57' E 023°35'0 0.0
2014-Oct-07 23:33N 37°57' E 023°35'0 0.0
2014-Oct-07 22:33N 37°57' E 023°35'0 0.0
2014-Oct-07 21:33N 37°57' E 023°35'0 0.0
2014-Oct-07 20:33N 37°57' E 023°35'0 0.0
2014-Oct-07 19:33N 37°57' E 023°35'0 0.0
2014-Oct-07 18:33N 37°57' E 023°35'0 0.0
2014-Oct-07 17:33N 37°57' E 023°35'0 0.0
2014-Oct-07 16:33N 37°57' E 023°35'0 0.0
2014-Oct-07 15:33N 37°57' E 023°35'  
Track history (hours):
 
Tides and Currents Weather Stations Pressure Air Temp Water Temp Dewpoint Dewpoint Depression Visibility Wind Speed Wind Dir Waves Ship Positions

Agios Georgios I

Last reported at 2014-Oct-17 15:24 UTC. Time now 2014-Oct-22 01:44 UTC.
Position N 37°30' E 024°58'.

Length 59 m; draft 5 m.

Type: Ship (hazmat cat B). MMSI: 239912000.

Date/timePositionNaut miles runAvg speedWind from/ knotsBaromVisibWave heightAir tempDewpointWater temp
2014-Oct-17 15:24N 37°30' E 024°58'4 3.8
2014-Oct-17 14:22N 37°26' E 024°56'0 0.0
2014-Oct-17 13:26N 37°26' E 024°56'0 0.0
2014-Oct-17 12:30N 37°26' E 024°56'0 0.0
2014-Oct-17 11:20N 37°26' E 024°56'0 0.0
2014-Oct-17 10:19N 37°26' E 024°56'0 0.0
2014-Oct-17 09:30N 37°26' E 024°56'0 0.0
2014-Oct-17 08:26N 37°26' E 024°56'0 0.0
2014-Oct-17 07:08N 37°26' E 024°56'0 0.0
2014-Oct-17 06:31N 37°26' E 024°56'0 0.0
2014-Oct-17 05:23N 37°26' E 024°56'1 1.6
2014-Oct-17 04:31N 37°26' E 024°58'5 5.7
2014-Oct-17 03:32N 37°22' E 025°03'9 8.9
2014-Oct-17 02:33N 37°16' E 025°11'9 8.7
2014-Oct-17 01:33N 37°09' E 025°18'4 4.3
2014-Oct-17 00:33N 37°06' E 025°22'0 0.0
2014-Oct-16 23:33N 37°06' E 025°22'0 0.0
2014-Oct-16 22:33N 37°06' E 025°22'0 0.3
2014-Oct-16 21:33N 37°06' E 025°22'0 0.3
2014-Oct-16 20:33N 37°06' E 025°22'0 0.0
2014-Oct-16 19:33N 37°06' E 025°22'7 7.1
2014-Oct-16 18:33N 37°10' E 025°15'7 5.4
2014-Oct-16 17:19N 37°05' E 025°09'0 0.0
2014-Oct-16 16:29N 37°05' E 025°09'0 0.0
2014-Oct-16 15:30N 37°05' E 025°09'2 1.2
2014-Oct-16 14:15N 37°06' E 025°08'6 9.0
2014-Oct-16 13:33N 37°12' E 025°11'9 9.0
2014-Oct-16 12:33N 37°20' E 025°16'8 8.3
2014-Oct-16 11:33N 37°28' E 025°19'1 1.0
2014-Oct-16 10:33N 37°27' E 025°19'0 0.4
2014-Oct-16 09:33N 37°27' E 025°19'1 0.6
2014-Oct-16 08:33N 37°28' E 025°19'0 0.0
2014-Oct-16 07:33N 37°28' E 025°19'0 0.0
2014-Oct-16 06:32N 37°28' E 025°19'0 0.0
2014-Oct-16 05:33N 37°28' E 025°19'2 1.9
2014-Oct-16 04:33N 37°28' E 025°17'5 5.1
2014-Oct-16 03:33N 37°30' E 025°12'3 2.7
2014-Oct-16 02:33N 37°32' E 025°09'0 0.0
2014-Oct-16 01:33N 37°32' E 025°09'0 0.0
2014-Oct-16 00:33N 37°32' E 025°09'2 1.8
2014-Oct-15 23:33N 37°32' E 025°07'9 9.2
2014-Oct-15 22:33N 37°32' E 024°55'9 9.2
2014-Oct-15 21:33N 37°31' E 024°44'9 9.1
2014-Oct-15 20:33N 37°31' E 024°32'12 9.3
2014-Oct-15 19:16N 37°31' E 024°17'7 9.4
2014-Oct-15 18:33N 37°32' E 024°09'10 9.9
2014-Oct-15 17:31N 37°36' E 023°57'9 9.3
2014-Oct-15 16:31N 37°39' E 023°46'8 8.3
2014-Oct-15 15:33N 37°45' E 023°40'8 8.3
2014-Oct-15 14:33N 37°50' E 023°31'9 9.2
2014-Oct-15 13:33N 37°52' E 023°20'10 9.2
2014-Oct-15 12:30N 37°54' E 023°08'2 2.3
2014-Oct-15 11:28N 37°55' E 023°05'0 0.0
2014-Oct-15 10:32N 37°55' E 023°05'0 0.0
2014-Oct-15 09:33N 37°55' E 023°05'0 0.0
2014-Oct-15 08:27N 37°55' E 023°05'0 0.1
2014-Oct-15 07:29N 37°55' E 023°05'0 0.5
2014-Oct-15 06:30N 37°55' E 023°06'0 0.0
2014-Oct-15 04:30N 37°55' E 023°06'0 0.0
2014-Oct-15 03:32N 37°55' E 023°06'6 5.9
2014-Oct-15 02:30N 37°53' E 023°13'8 8.8
2014-Oct-15 01:33N 37°51' E 023°24'9 8.7
2014-Oct-15 00:33N 37°50' E 023°35'7 7.4
2014-Oct-14 23:33N 37°46' E 023°42'8 8.4
2014-Oct-14 22:33N 37°39' E 023°49'29 8.4
2014-Oct-14 19:10N 37°30' E 024°23'6 8.6
2014-Oct-14 18:30N 37°31' E 024°30'8 9.0
2014-Oct-14 17:33N 37°31' E 024°41'14 7.0
2014-Oct-14 15:33N 37°27' E 024°58'1 1.2
2014-Oct-14 14:31N 37°26' E 024°56'1 0.5
2014-Oct-14 13:07N 37°26' E 024°57'1 1.8
2014-Oct-14 12:33N 37°25' E 024°58'4 4.3
2014-Oct-14 11:30N 37°21' E 024°60'9 9.1
2014-Oct-14 10:28N 37°12' E 025°04'8 7.6
2014-Oct-14 09:25N 37°05' E 025°09'0 0.1
2014-Oct-14 02:30N 37°06' E 025°08'0 0.0
2014-Oct-14 01:18N 37°06' E 025°08'0 0.0
2014-Oct-14 00:06N 37°05' E 025°08'0 0.0
2014-Oct-13 22:32N 37°06' E 025°08'0 0.3
2014-Oct-13 21:24N 37°05' E 025°08'6 7.3
2014-Oct-13 20:33N 37°10' E 025°13'8 8.0
2014-Oct-13 19:33N 37°06' E 025°22'0 0.0
2014-Oct-13 18:33N 37°06' E 025°22'0 0.0
2014-Oct-13 17:33N 37°06' E 025°22'0 0.0
2014-Oct-13 16:33N 37°06' E 025°22'1 0.6
2014-Oct-13 15:33N 37°06' E 025°22'0 0.3
2014-Oct-13 14:33N 37°06' E 025°22'2 1.8
2014-Oct-13 13:33N 37°08' E 025°21'1010.0
2014-Oct-13 12:33N 37°18' E 025°19'9 9.4
2014-Oct-13 11:33N 37°27' E 025°18'2 1.6
2014-Oct-13 10:33N 37°28' E 025°20'0 0.0
2014-Oct-13 09:33N 37°28' E 025°20'0 0.0
2014-Oct-13 08:33N 37°28' E 025°20'0 0.0
2014-Oct-13 07:33N 37°28' E 025°20'0 0.0
2014-Oct-13 06:33N 37°28' E 025°20'1 0.5
2014-Oct-13 05:33N 37°27' E 025°19'1 0.6
2014-Oct-13 04:33N 37°28' E 025°18'6 6.4
2014-Oct-13 03:33N 37°31' E 025°11'2 2.2
2014-Oct-13 02:33N 37°32' E 025°09'0 0.0
2014-Oct-13 01:33N 37°32' E 025°09'0 0.0
2014-Oct-13 00:33N 37°32' E 025°09'0 0.0
2014-Oct-12 23:33N 37°32' E 025°09'0 0.0
2014-Oct-12 22:33N 37°32' E 025°09'0 0.0
2014-Oct-12 21:33N 37°32' E 025°09'0 0.0
2014-Oct-12 20:33N 37°32' E 025°09'0 0.0
2014-Oct-12 19:33N 37°32' E 025°09'0 0.0
2014-Oct-12 18:33N 37°32' E 025°09'0 0.0
2014-Oct-12 17:33N 37°32' E 025°09'0 0.0
2014-Oct-12 16:33N 37°32' E 025°09'0 0.0
2014-Oct-12 15:33N 37°32' E 025°09'1 1.1
2014-Oct-12 14:33N 37°31' E 025°08'9 8.6
2014-Oct-12 13:33N 37°27' E 024°59'2 2.2
2014-Oct-12 12:27N 37°26' E 024°56'0 0.0
2014-Oct-12 11:27N 37°26' E 024°56'0 0.0
2014-Oct-12 10:31N 37°26' E 024°56'0 0.0
2014-Oct-12 09:32N 37°26' E 024°56'0 0.0
2014-Oct-12 08:30N 37°26' E 024°56'1 0.7
2014-Oct-12 06:33N 37°27' E 024°57'7 6.8
2014-Oct-12 05:32N 37°32' E 024°51'9 8.9
2014-Oct-12 04:33N 37°31' E 024°40'9 8.5
2014-Oct-12 03:33N 37°30' E 024°30'9 8.7
2014-Oct-12 02:30N 37°31' E 024°18'8 9.0
2014-Oct-12 01:33N 37°33' E 024°08'20 8.8
2014-Oct-11 23:20N 37°39' E 023°44'7 8.8
2014-Oct-11 22:33N 37°45' E 023°39'8 8.1
2014-Oct-11 21:33N 37°50' E 023°31'9 9.1
2014-Oct-11 20:33N 37°52' E 023°20'9 9.1
2014-Oct-11 19:33N 37°54' E 023°09'3 2.2
2014-Oct-11 18:14N 37°55' E 023°05'0 0.0
2014-Oct-11 17:32N 37°55' E 023°05'0 0.0
2014-Oct-11 13:33N 37°55' E 023°05'0 0.0
2014-Oct-11 12:27N 37°55' E 023°05'0 0.0
2014-Oct-11 11:33N 37°55' E 023°05'0 0.0
2014-Oct-11 10:33N 37°55' E 023°05'0 0.0
2014-Oct-11 09:33N 37°55' E 023°05'0 0.0
2014-Oct-11 07:11N 37°55' E 023°05'0 0.0
2014-Oct-11 06:32N 37°55' E 023°05'1 0.5
2014-Oct-11 05:26N 37°55' E 023°06'0 0.2
2014-Oct-11 04:22N 37°55' E 023°06'0 0.0
2014-Oct-11 03:19N 37°55' E 023°06'0 0.0
2014-Oct-11 02:32N 37°55' E 023°06'0 0.0
2014-Oct-11 01:30N 37°55' E 023°06'0 0.0
2014-Oct-11 00:20N 37°55' E 023°06'0 0.1
2014-Oct-10 23:32N 37°55' E 023°06'0 0.0
2014-Oct-10 22:33N 37°55' E 023°06'0 0.0
2014-Oct-10 21:33N 37°55' E 023°06'0 0.0
2014-Oct-10 20:32N 37°55' E 023°06'0 0.0
2014-Oct-10 19:26N 37°55' E 023°06'2 1.6
2014-Oct-10 18:29N 37°54' E 023°08'8 9.0
2014-Oct-10 17:33N 37°52' E 023°18'9 8.7
2014-Oct-10 16:33N 37°50' E 023°29'8 7.8
2014-Oct-10 15:33N 37°57' E 023°35'1 0.7
2014-Oct-10 14:33N 37°57' E 023°35'0 0.0
2014-Oct-10 13:33N 37°57' E 023°35'0 0.0
2014-Oct-10 12:33N 37°57' E 023°35'0 0.2
2014-Oct-10 11:33N 37°57' E 023°35'0 0.0
2014-Oct-10 10:33N 37°57' E 023°35'0 0.0
2014-Oct-10 09:33N 37°57' E 023°35'0 0.0
2014-Oct-10 08:33N 37°57' E 023°35'0 0.0
2014-Oct-10 07:33N 37°57' E 023°35'0 0.0
2014-Oct-10 06:33N 37°57' E 023°35'0 0.0
2014-Oct-10 05:33N 37°57' E 023°35'0 0.0
2014-Oct-10 04:33N 37°57' E 023°35'0 0.0
2014-Oct-10 03:33N 37°57' E 023°35'0 0.0
2014-Oct-10 02:33N 37°57' E 023°35'0 0.0
2014-Oct-10 01:33N 37°57' E 023°35'0 0.0
2014-Oct-10 00:33N 37°57' E 023°35'0 0.0
2014-Oct-09 23:33N 37°57' E 023°35'0 0.0
2014-Oct-09 22:33N 37°57' E 023°35'0 0.0
2014-Oct-09 21:33N 37°57' E 023°35'0 0.0
2014-Oct-09 20:33N 37°57' E 023°35'0 0.0
2014-Oct-09 19:33N 37°57' E 023°35'0 0.0
2014-Oct-09 18:33N 37°57' E 023°35'0 0.0
2014-Oct-09 17:33N 37°57' E 023°35'0 0.0
2014-Oct-09 16:33N 37°57' E 023°35'0 0.0
2014-Oct-09 15:33N 37°57' E 023°35'0 0.0
2014-Oct-09 14:33N 37°57' E 023°35'0 0.0
2014-Oct-09 13:33N 37°57' E 023°35'0 0.0
2014-Oct-09 12:33N 37°57' E 023°35'0 0.0
2014-Oct-09 11:33N 37°57' E 023°35'0 0.0
2014-Oct-09 10:33N 37°57' E 023°35'0 0.0
2014-Oct-09 09:33N 37°57' E 023°35'0 0.0
2014-Oct-09 08:33N 37°57' E 023°35'0 0.0
2014-Oct-09 07:33N 37°57' E 023°35'0 0.0
2014-Oct-09 06:33N 37°57' E 023°35'0 0.0
2014-Oct-09 05:33N 37°57' E 023°35'0 0.0
2014-Oct-09 04:33N 37°57' E 023°35'0 0.0
2014-Oct-09 03:33N 37°57' E 023°35'0 0.0
2014-Oct-09 02:33N 37°57' E 023°35'0 0.0
2014-Oct-09 01:33N 37°57' E 023°35'0 0.0
2014-Oct-09 00:33N 37°57' E 023°35'0 0.0
2014-Oct-08 23:33N 37°57' E 023°35'0 0.0
2014-Oct-08 22:33N 37°57' E 023°35'0 0.0
2014-Oct-08 21:33N 37°57' E 023°35'0 0.0
2014-Oct-08 20:33N 37°57' E 023°35'0 0.0
2014-Oct-08 19:33N 37°57' E 023°35'0 0.0
2014-Oct-08 18:33N 37°57' E 023°35'0 0.0
2014-Oct-08 17:33N 37°57' E 023°35'0 0.1
2014-Oct-08 16:33N 37°57' E 023°35'0 0.0
2014-Oct-08 15:33N 37°57' E 023°35'0 0.0
2014-Oct-08 14:33N 37°57' E 023°35'0 0.0
2014-Oct-08 13:33N 37°57' E 023°35'0 0.1
2014-Oct-08 12:33N 37°57' E 023°35'0 0.0
2014-Oct-08 11:33N 37°57' E 023°35'0 0.0
2014-Oct-08 10:33N 37°57' E 023°35'0 0.0
2014-Oct-08 09:33N 37°57' E 023°35'0 0.0
2014-Oct-08 08:33N 37°57' E 023°35'0 0.0
2014-Oct-08 07:33N 37°57' E 023°35'0 0.0
2014-Oct-08 06:33N 37°57' E 023°35'0 0.0
2014-Oct-08 05:33N 37°57' E 023°35'0 0.0
2014-Oct-08 04:33N 37°57' E 023°35'0 0.0
2014-Oct-08 03:33N 37°57' E 023°35'0 0.0
2014-Oct-08 02:33N 37°57' E 023°35'0 0.0
2014-Oct-08 01:33N 37°57' E 023°35'0 0.0
2014-Oct-08 00:34N 37°57' E 023°35'0 0.0
2014-Oct-07 23:33N 37°57' E 023°35'0 0.0
2014-Oct-07 22:33N 37°57' E 023°35'0 0.0
2014-Oct-07 21:33N 37°57' E 023°35'0 0.0
2014-Oct-07 20:33N 37°57' E 023°35'0 0.0
2014-Oct-07 19:33N 37°57' E 023°35'0 0.0
2014-Oct-07 18:33N 37°57' E 023°35'0 0.0
2014-Oct-07 17:33N 37°57' E 023°35'0 0.0
2014-Oct-07 16:33N 37°57' E 023°35'0 0.0
2014-Oct-07 15:33N 37°57' E 023°35'  

Dump ship's entire track history